TimeEST,TemperatureF,Dew PointF,Humidity,Sea Level PressureIn,VisibilityMPH,Wind Direction,Wind SpeedMPH,Gust SpeedMPH,PrecipitationIn,Events,Conditions,WindDirDegrees,DateUTC
12:54 AM,32.0,23.0,69,30.35,10.0,South,6.9,-,N/A,,Clear,180,2012-12-13 05:54:00
1:54 AM,30.9,23.0,72,30.34,10.0,South,6.9,-,N/A,,Clear,190,2012-12-13 06:54:00
2:54 AM,30.9,23.0,72,30.35,10.0,South,9.2,-,N/A,,Clear,190,2012-12-13 07:54:00
3:54 AM,32.0,24.1,73,30.34,10.0,SSW,12.7,-,N/A,,Clear,200,2012-12-13 08:54:00
4:54 AM,32.0,23.0,69,30.34,10.0,SSW,10.4,-,N/A,,Clear,200,2012-12-13 09:54:00
5:54 AM,30.9,23.0,72,30.34,10.0,SSW,8.1,-,N/A,,Clear,200,2012-12-13 10:54:00
6:54 AM,32.0,23.0,69,30.35,10.0,SSW,9.2,-,N/A,,Clear,210,2012-12-13 11:54:00
7:54 AM,32.0,23.0,69,30.35,10.0,SSW,10.4,-,N/A,,Clear,210,2012-12-13 12:54:00
8:54 AM,33.1,24.1,70,30.34,10.0,SSW,11.5,-,N/A,,Clear,200,2012-12-13 13:54:00
9:54 AM,36.0,24.1,62,30.35,10.0,SSW,12.7,19.6,N/A,,Clear,200,2012-12-13 14:54:00
10:54 AM,37.9,25.0,60,30.33,10.0,SSW,17.3,-,N/A,,Clear,200,2012-12-13 15:54:00
11:54 AM,41.0,25.0,53,30.31,10.0,SSW,15.0,-,N/A,,Clear,200,2012-12-13 16:54:00
12:54 PM,43.0,25.0,49,30.29,10.0,South,15.0,-,N/A,,Clear,190,2012-12-13 17:54:00
1:54 PM,45.0,24.1,44,30.25,10.0,South,15.0,26.5,N/A,,Clear,190,2012-12-13 18:54:00
2:54 PM,46.9,25.0,42,30.22,10.0,South,16.1,21.9,N/A,,Clear,190,2012-12-13 19:54:00
3:54 PM,46.0,25.0,44,30.20,10.0,South,18.4,26.5,N/A,,Clear,190,2012-12-13 20:54:00
4:54 PM,44.1,25.0,47,30.20,10.0,South,12.7,-,N/A,,Clear,190,2012-12-13 21:54:00
7:54 PM,39.2,24.8,56,30.16,10.0,South,9.2,-,N/A,,Clear,190,2012-12-14 00:54:00
8:54 PM,39.9,23.0,51,30.20,10.0,SW,8.1,-,N/A,,Clear,230,2012-12-14 01:54:00
9:54 PM,37.9,23.0,55,30.20,10.0,SW,9.2,-,N/A,,Clear,220,2012-12-14 02:54:00
10:54 PM,37.0,23.0,57,30.21,10.0,SW,6.9,-,N/A,,Clear,220,2012-12-14 03:54:00
11:54 PM,36.0,24.1,62,30.21,10.0,SSW,9.2,-,N/A,,Clear,210,2012-12-14 04:54:00